Hourly Weather Kizhani

Today, 25 July, Sunday

Time Temperature Precipitation Wind Pressure Humidity
00:00 +14°C° 0 mm 1 mps 620 mmHg 93%
01:00 +14°C° 0 mm 1 mps 620 mmHg 93%
02:00 +14°C° 0 mm 1 mps 620 mmHg 92%
03:00 +14°C° 0 mm 1 mps 620 mmHg 93%
04:00 +14°C° 0 mm 1 mps 620 mmHg 92%
05:00 +14°C° 0 mm 1 mps 621 mmHg 92%
06:00 +15°C° 0 mm 1 mps 621 mmHg 91%
07:00 +15°C° 0 mm 1 mps 621 mmHg 87%
08:00 +16°C° 0 mm 2 mps 621 mmHg 82%
09:00 +17°C° 0 mm 2 mps 622 mmHg 78%
10:00 +18°C° 0.1 mm 2 mps 622 mmHg 76%
11:00 +18°C° 0.1 mm 2 mps 622 mmHg 74%
12:00 +19°C° 0.1 mm 2 mps 622 mmHg 72%
13:00 +19°C° 0.1 mm 2 mps 622 mmHg 71%
14:00 +19°C° 0.1 mm 2 mps 623 mmHg 70%
15:00 +20°C° 0.1 mm 2 mps 623 mmHg 69%
16:00 +19°C° 0.1 mm 2 mps 623 mmHg 72%
17:00 +19°C° 0.1 mm 1 mps 623 mmHg 75%
18:00 +19°C° 0.1 mm 1 mps 623 mmHg 78%
19:00 +18°C° 0 mm 1 mps 623 mmHg 82%
20:00 +16°C° 0 mm 1 mps 622 mmHg 85%
21:00 +14°C° 0 mm 0 mps 622 mmHg 89%
22:00 +14°C° 0 mm 0 mps 622 mmHg 89%
23:00 +14°C° 0 mm 0 mps 622 mmHg 89%

Tomorrow, 26 July, Monday

Time Temperature Precipitation Wind Pressure Humidity
00:00 +13°C° 0 mm 0 mps 622 mmHg 89%
01:00 +14°C° 0 mm 1 mps 622 mmHg 89%
02:00 +14°C° 0 mm 1 mps 622 mmHg 89%
03:00 +14°C° 0 mm 1 mps 621 mmHg 89%
04:00 +14°C° 0 mm 1 mps 622 mmHg 88%
05:00 +15°C° 0 mm 1 mps 622 mmHg 87%
06:00 +15°C° 0 mm 1 mps 622 mmHg 86%
07:00 +18°C° 0 mm 1 mps 623 mmHg 81%
08:00 +18°C° 0 mm 2 mps 623 mmHg 75%
09:00 +20°C° 0 mm 2 mps 623 mmHg 69%
10:00 +21°C° 0.1 mm 2 mps 623 mmHg 67%
11:00 +23°C° 0.1 mm 2 mps 624 mmHg 64%
12:00 +24°C° 0.1 mm 2 mps 624 mmHg 61%
13:00 +24°C° 0.2 mm 2 mps 623 mmHg 61%
14:00 +23°C° 0.2 mm 2 mps 623 mmHg 61%
15:00 +23°C° 0.2 mm 2 mps 623 mmHg 62%
16:00 +21°C° 0.2 mm 2 mps 623 mmHg 66%
17:00 +21°C° 0.2 mm 2 mps 623 mmHg 71%
18:00 +21°C° 0.2 mm 1 mps 623 mmHg 76%
19:00 +19°C° 0.2 mm 1 mps 623 mmHg 78%
20:00 +18°C° 0.2 mm 1 mps 623 mmHg 81%
21:00 +16°C° 0.2 mm 1 mps 623 mmHg 83%
22:00 +16°C° 0.3 mm 1 mps 622 mmHg 84%
23:00 +15°C° 0.3 mm 1 mps 622 mmHg 86%

Day after tomorrow, 27 July, Tuesday

Time Temperature Precipitation Wind Pressure Humidity
00:00 +15°C° 0.3 mm 1 mps 622 mmHg 87%
01:00 +14°C° 0.3 mm 1 mps 621 mmHg 88%
02:00 +14°C° 0.3 mm 1 mps 621 mmHg 89%
03:00 +13°C° 0.3 mm 1 mps 621 mmHg 90%
04:00 +14°C° 0.3 mm 1 mps 621 mmHg 90%
05:00 +14°C° 0.3 mm 1 mps 621 mmHg 89%
06:00 +14°C° 0.3 mm 1 mps 622 mmHg 88%
07:00 +15°C° 0.1 mm 2 mps 622 mmHg 80%
08:00 +17°C° 0.1 mm 2 mps 622 mmHg 72%
09:00 +18°C° 0.1 mm 2 mps 622 mmHg 64%
10:00 +19°C° 0 mm 2 mps 622 mmHg 61%
11:00 +19°C° 0 mm 3 mps 622 mmHg 58%
12:00 +20°C° 0 mm 3 mps 622 mmHg 54%
13:00 +20°C° 0.1 mm 3 mps 622 mmHg 58%
14:00 +19°C° 0.1 mm 3 mps 622 mmHg 62%
15:00 +18°C° 0.1 mm 2 mps 621 mmHg 66%
16:00 +18°C° 0.1 mm 2 mps 621 mmHg 69%
17:00 +17°C° 0.1 mm 2 mps 621 mmHg 72%
18:00 +16°C° 0.1 mm 2 mps 621 mmHg 76%
19:00 +15°C° 1.7 mm 2 mps 621 mmHg 82%
20:00 +14°C° 1.7 mm 2 mps 621 mmHg 89%
21:00 +13°C° 1.7 mm 1 mps 621 mmHg 95%
22:00 +13°C° 0.5 mm 1 mps 621 mmHg 96%
23:00 +13°C° 0.5 mm 1 mps 621 mmHg 96%

28 July, Wednesday

Time Temperature Precipitation Wind Pressure Humidity
00:00 +13°C° 0.5 mm 1 mps 621 mmHg 96%
01:00 +12°C° 0.6 mm 1 mps 620 mmHg 96%
02:00 +12°C° 0.6 mm 1 mps 620 mmHg 96%
03:00 +12°C° 0.6 mm 2 mps 620 mmHg 96%
04:00 +12°C° 0.9 mm 2 mps 620 mmHg 96%
05:00 +10°C° 0.9 mm 2 mps 620 mmHg 96%
06:00 +10°C° 0.9 mm 2 mps 621 mmHg 96%
07:00 +11°C° 0.3 mm 1 mps 621 mmHg 95%
08:00 +11°C° 0.3 mm 1 mps 621 mmHg 94%
09:00 +11°C° 0.3 mm 1 mps 621 mmHg 93%
10:00 +11°C° 0.1 mm 1 mps 621 mmHg 91%
11:00 +11°C° 0.1 mm 1 mps 621 mmHg 90%
12:00 +11°C° 0.1 mm 1 mps 621 mmHg 88%
13:00 +11°C° 0 mm 1 mps 621 mmHg 86%
14:00 +12°C° 0 mm 1 mps 621 mmHg 83%
15:00 +12°C° 0 mm 1 mps 621 mmHg 81%
16:00 +12°C° 0 mm 1 mps 622 mmHg 81%
17:00 +12°C° 0 mm 1 mps 622 mmHg 81%
18:00 +12°C° 0 mm 1 mps 622 mmHg 81%
19:00 +12°C° 0 mm 1 mps 622 mmHg 82%
20:00 +11°C° 0 mm 1 mps 622 mmHg 84%
21:00 +11°C° 0 mm 1 mps 622 mmHg 85%
22:00 +10°C° 0 mm 1 mps 621 mmHg 86%
23:00 +10°C° 0 mm 1 mps 621 mmHg 87%

29 July, Thursday

Time Temperature Precipitation Wind Pressure Humidity
00:00 +9°C° 0 mm 1 mps 621 mmHg 87%
01:00 +9°C° 0 mm 1 mps 620 mmHg 86%
02:00 +9°C° 0 mm 1 mps 620 mmHg 85%
03:00 +8°C° 0 mm 1 mps 620 mmHg 84%
04:00 +9°C° 0 mm 1 mps 620 mmHg 82%
05:00 +10°C° 0 mm 1 mps 620 mmHg 80%
06:00 +10°C° 0 mm 1 mps 620 mmHg 78%
07:00 +12°C° 0 mm 1 mps 620 mmHg 70%
08:00 +14°C° 0 mm 1 mps 621 mmHg 61%
09:00 +16°C° 0 mm 1 mps 622 mmHg 53%
10:00 +18°C° 0 mm 2 mps 622 mmHg 51%
11:00 +19°C° 0 mm 2 mps 622 mmHg 49%
12:00 +20°C° 0 mm 2 mps 622 mmHg 46%
13:00 +20°C° 0 mm 2 mps 622 mmHg 46%
14:00 +20°C° 0 mm 2 mps 622 mmHg 46%
15:00 +21°C° 0 mm 2 mps 622 mmHg 46%
16:00 +20°C° 0 mm 2 mps 621 mmHg 51%
17:00 +20°C° 0 mm 1 mps 621 mmHg 55%
18:00 +19°C° 0 mm 1 mps 621 mmHg 60%
19:00 +16°C° 0 mm 1 mps 621 mmHg 64%
20:00 +14°C° 0 mm 1 mps 620 mmHg 67%
21:00 +13°C° 0 mm 1 mps 620 mmHg 71%
22:00 +12°C° 0 mm 1 mps 620 mmHg 72%
23:00 +12°C° 0 mm 1 mps 619 mmHg 72%

30 July, Friday

Time Temperature Precipitation Wind Pressure Humidity
00:00 +12°C° 0 mm 1 mps 619 mmHg 73%
01:00 +12°C° 0 mm 1 mps 619 mmHg 73%
02:00 +12°C° 0 mm 1 mps 619 mmHg 73%
03:00 +12°C° 0 mm 1 mps 619 mmHg 74%
04:00 +12°C° 0 mm 1 mps 619 mmHg 73%
05:00 +13°C° 0 mm 1 mps 619 mmHg 73%
06:00 +13°C° 0 mm 1 mps 620 mmHg 72%
07:00 +15°C° 0 mm 1 mps 620 mmHg 66%
08:00 +18°C° 0 mm 1 mps 621 mmHg 60%
09:00 +20°C° 0 mm 1 mps 621 mmHg 54%
10:00 +21°C° 0 mm 1 mps 621 mmHg 52%
11:00 +21°C° 0 mm 2 mps 621 mmHg 49%
12:00 +23°C° 0 mm 2 mps 621 mmHg 47%
13:00 +23°C° 0 mm 2 mps 621 mmHg 48%
14:00 +23°C° 0 mm 2 mps 621 mmHg 48%
15:00 +23°C° 0 mm 2 mps 621 mmHg 48%
16:00 +21°C° 0 mm 2 mps 621 mmHg 53%
17:00 +20°C° 0 mm 2 mps 621 mmHg 58%
18:00 +20°C° 0 mm 1 mps 621 mmHg 63%
19:00 +19°C° 0 mm 1 mps 620 mmHg 65%
20:00 +16°C° 0 mm 1 mps 620 mmHg 68%
21:00 +15°C° 0 mm 1 mps 620 mmHg 70%
22:00 +15°C° 0 mm 1 mps 620 mmHg 69%
23:00 +15°C° 0 mm 1 mps 620 mmHg 68%
Show more